Retour au catalogue

STARLINK-34749

ActifCommunicationsSSO
NORAD 65675·PAYLOAD·🇺🇸 United States

Lancé Sep 19, 2025 depuis Vandenberg Space Force Base

Loading…

Prochains Passages (prochaines 24 heures)

TLE

FraisSource: CelesTrak SupGP

Époque: Sep 15, 2026, 03:56 UTC

1 65675C 25211Z   26258.16437500 -.00021574  00000+0 -67009-3 0  2582
2 65675  97.2831 298.5001 0001218  93.4080  39.4828 15.33432303    14

Suivez STARLINK-34749 en temps réel avec AllMySat

Download on the App Store